Home > Time Zones > World Clock > Weather > Togo > Lome > Past weeks

Flag for Togo Weather past 2 weeks in Lome, Togo

Now
72 °F

Broken clouds.


Feels Like: 65 °F
Forecast: 74 / 82 °F
Wind: 5 mph from North

Location: Lome Airport

Current Time: Aug 20, 2014 at 7:07:01 AM

Latest Report: Aug 20, 2014 at 6:00 AM


Visibility: 4 mi

Pressure: 29.95 "Hg

Humidity: 100%

Dew point: 72 °F

Location of LomeLocation

Historic Weather in Lome — Graph

°F

Lome temperature yesterday

Maximum temperature yesterday: 81 °F (at 1:00 PM)
Minimum temperature yesterday: 72 °F (at 11:00 PM)
Average temperature yesterday: 76 °F

Past Weeks' High & Low Weather Summary

 TemperatureHumidityPressure
High86 °F (Aug 18, 11:00 AM)100% (Aug 5, 6:00 PM)30.04 "Hg (Aug 5, 6:00 PM)
Low72 °F (Aug 14, 3:00 AM)62% (Aug 18, 11:00 AM)29.89 "Hg (Aug 5, 3:00 PM)
Average77 °F92%29.96 "Hg
* Reported Aug 5 6:00 AM — Aug 20 6:00 AM, Lome, Weather by CustomWeather, © 2014

Note: Actual official high and low records may vary slightly from our data, if they occured in-between our weather recording intervals... More about our weather records

Advertising

Lome weather history for previous 24 hours

 ConditionsComfort  
Time TempWeatherWind HumidityBarometerVisibility
6:00 AM
Aug 20
72 °FBroken clouds.5 mph100%29.95 "Hg4 mi
5:00 AM72 °FPartly cloudy.1 mph100%29.95 "Hg5 mi
4:00 AM72 °FPartly cloudy.1 mph100%29.95 "Hg5 mi
3:00 AM72 °FPartly cloudy.3 mph100%29.95 "Hg5 mi
2:00 AM72 °FPartly cloudy.3 mph100%29.95 "Hg5 mi
1:00 AM72 °FPartly cloudy.5 mph100%29.95 "Hg5 mi
12:00 AM72 °FLight rain. Passing clouds.6 mph100%29.95 "Hg5 mi
11:00 PM
Aug 19
72 °FPassing clouds.9 mph100%29.98 "Hg5 mi
10:00 PM73 °FPassing clouds.5 mph100%29.95 "Hg5 mi
9:00 PM75 °FPassing clouds.12 mph94%29.92 "Hg5 mi
8:00 PM75 °FPassing clouds.3 mph94%29.92 "Hg5 mi
7:00 PM75 °FPassing clouds.17 mph94%29.89 "Hg5 mi
6:00 PM75 °FPartly sunny.5 mph94%29.92 "Hg5 mi
5:00 PM75 °FLight rain. Scattered clouds.7 mph83%29.89 "Hg5 mi
4:00 PM79 °FScattered clouds.12 mph89%29.89 "HgN/A
3:00 PM79 °FPartly sunny.13 mph89%29.92 "HgN/A
2:00 PM79 °FPartly sunny.10 mph89%29.92 "HgN/A
1:00 PM81 °FPartly sunny.10 mph84%29.95 "HgN/A
12:00 PM79 °FBroken clouds.9 mph94%29.98 "HgN/A
11:00 AM79 °FScattered clouds.12 mph89%29.98 "HgN/A
10:00 AM79 °FScattered clouds.13 mph94%29.98 "HgN/A
9:00 AM77 °FScattered clouds.10 mph100%30.01 "HgN/A
8:00 AM75 °FBroken clouds.7 mph100%29.98 "Hg5 mi
7:00 AM75 °FBroken clouds.5 mph100%29.98 "Hg5 mi
Weather by CustomWeather, © 2014

See weather overviewHow to use our weather pages